M1VPN Weather Reports


time (UTC)temp
C
wind
direction
speed
KPH
gust
KPH
rain 1hr
cm
rain 24hr
cm
rain mn
cm
humidity
%
barometer
mb
20260505213005 11 0 0.0 0.0 0.00 0.00 0.00 70 1014.6
20260505211504 11 0 0.0 0.0 0.00 0.00 0.00 69 1014.6
20260505204505 11 0 0.0 0.0 0.00 0.00 0.00 69 1014.3
20260505203005 11 0 0.0 0.0 0.00 0.00 0.00 69 1014.4
20260505200004 12 0 0.0 0.0 0.00 0.00 0.00 69 1014.2
20260505194504 12 0 0.0 0.0 0.00 0.00 0.00 68 1014.1
20260505193004 12 0 0.0 0.0 0.00 0.00 0.00 67 1013.9
20260505183005 13 14 3.2 19.3 0.00 0.00 0.00 65 1013.8
20260505180004 13 9 8.0 16.1 0.00 0.00 0.00 64 1013.7
20260505173005 13 34 9.7 22.5 0.00 0.00 0.00 62 1013.8
20260505161504 15 26 11.3 19.3 0.00 0.00 0.00 60 1013.9
20260505153004 15 17 8.0 20.9 0.00 0.00 0.00 58 1013.9
20260505151504 15 38 4.8 19.3 0.00 0.00 0.00 59 1013.9
20260505124503 15 0 0.0 0.0 0.00 0.00 0.00 61 1014.5
20260505123004 15 0 0.0 0.0 0.00 0.00 0.00 64 1014.4
20260505121504 15 0 0.0 0.0 0.00 0.00 0.00 64 1014.5
20260505101504 14 0 0.0 0.0 0.00 0.00 0.00 69 1015.0
20260505091505 12 0 0.0 0.0 0.00 0.00 0.00 75 1015.0
20260505090005 12 0 0.0 0.0 0.00 0.00 0.00 76 1014.9
20260505084505 12 0 0.0 0.0 0.00 0.00 0.00 77 1015.1
20260505081504 12 0 0.0 0.0 0.00 0.00 0.00 83 1015.1
20260505074505 11 0 0.0 0.0 0.00 0.00 0.00 83 1015.0
20260505070005 11 0 0.0 0.0 0.00 0.00 0.00 85 1015.2
20260505063006 11 0 0.0 0.0 0.00 0.00 0.00 87 1015.0
20260505061505 10 0 0.0 0.0 0.00 0.00 0.00 88 1015.1
20260505054505 10 0 0.0 0.0 0.00 0.00 0.00 89 1014.9
20260505033005 10 0 0.0 0.0 0.00 0.00 0.00 90 1014.6
20260505031504 10 0 0.0 0.0 0.00 0.00 0.00 90 1014.6
20260505030005 10 0 0.0 0.0 0.00 0.00 0.00 90 1014.6
20260505024504 10 0 0.0 0.0 0.00 0.00 0.00 89 1014.6
20260505023005 10 0 0.0 0.0 0.00 0.00 0.00 88 1014.6
20260505021504 11 0 0.0 0.0 0.00 0.00 0.00 87 1014.8
20260505020005 11 0 0.0 0.0 0.00 0.00 0.00 86 1015.0
20260505013004 12 0 0.0 0.0 0.00 0.00 0.00 86 1015.3
20260504231504 11 0 0.0 0.0 0.00 0.00 0.00 89 1015.7
20260504224505 11 0 0.0 0.0 0.00 0.00 0.00 89 1015.5
20260504223005 11 0 0.0 0.0 0.00 0.00 0.00 90 1015.5
20260504221505 11 0 0.0 0.0 0.00 0.00 0.00 90 1015.6
20260504220004 10 0 0.0 0.0 0.00 0.00 0.00 90 1015.7